CW0343 Weather Reports


Display with metric or nautical units.
time (UTC)temp
F
wind
direction
speed
MPH
gust
MPH
rain 1hr
in
rain 24hr
in
rain mn
in
humidity
%
barometer
mb
20260504214805 68 136 1.0 3.0 0.00 0.01 0.01 85 1016.2
20260504214304 68 146 1.0 3.0 0.00 0.01 0.01 85 1016.2
20260504213804 67 130 0.0 5.0 0.00 0.01 0.01 85 1016.1
20260504213305 67 97 1.0 3.0 0.00 0.01 0.01 85 1016.2
20260504212805 67 96 1.0 3.0 0.00 0.01 0.01 85 1016.0
20260504212305 67 95 2.0 3.0 0.00 0.01 0.01 85 1016.0
20260504211804 67 91 1.0 3.0 0.00 0.01 0.01 85 1015.9
20260504211305 67 90 1.0 2.0 0.00 0.01 0.01 85 1015.9
20260504210804 67 90 1.0 3.0 0.00 0.01 0.01 85 1015.8
20260504205305 67 90 0.0 2.0 0.00 0.01 0.01 85 1015.7
20260504204804 67 90 1.0 3.0 0.00 0.01 0.01 85 1015.6
20260504203804 66 90 1.0 2.0 0.00 0.01 0.01 85 1015.6
20260504203305 66 90 2.0 6.0 0.00 0.01 0.01 85 1015.5
20260504201804 66 92 2.0 3.0 0.00 0.01 0.01 85 1015.2
20260504201305 66 92 1.0 3.0 0.00 0.01 0.01 85 1015.2
20260504195804 66 92 2.0 6.0 0.00 0.01 0.01 85 1015.1
20260504195305 66 93 4.0 7.0 0.00 0.01 0.01 85 1015.1
20260504194805 66 99 3.0 7.0 0.00 0.01 0.01 85 1015.2
20260504194304 66 132 3.0 3.0 0.00 0.01 0.01 86 1015.2
20260504193805 66 145 3.0 5.0 0.00 0.01 0.01 86 1015.1
20260504192805 66 101 2.0 3.0 0.00 0.01 0.01 86 1015.0
20260504192304 66 99 3.0 6.0 0.00 0.01 0.01 86 1014.9
20260504191805 66 97 1.0 3.0 0.00 0.01 0.01 86 1014.8
20260504191305 66 96 3.0 7.0 0.00 0.01 0.01 86 1014.8
20260504190804 66 98 2.0 6.0 0.00 0.01 0.01 86 1014.8
20260504190304 66 96 3.0 6.0 0.00 0.01 0.01 86 1014.7
20260504185804 66 96 1.0 3.0 0.00 0.01 0.01 86 1014.7
20260504185305 66 96 2.0 7.0 0.00 0.01 0.01 86 1014.7
20260504184304 65 142 1.0 3.0 0.00 0.01 0.01 86 1014.8
20260504183804 65 142 0.0 3.0 0.00 0.01 0.01 85 1014.7
20260504183305 65 142 1.0 3.0 0.00 0.01 0.01 85 1014.6
20260504182806 66 143 0.0 1.0 0.00 0.01 0.01 85 1014.5
20260504182306 66 143 1.0 3.0 0.00 0.01 0.01 85 1014.5
20260504181804 66 143 1.0 2.0 0.00 0.01 0.01 85 1014.6
20260504181304 66 143 1.0 3.0 0.00 0.01 0.01 85 1014.5
20260504180804 66 148 2.0 3.0 0.00 0.01 0.01 85 1014.6
20260504175805 66 146 1.0 3.0 0.00 0.01 0.01 85 1014.7
20260504175305 66 146 2.0 3.0 0.00 0.01 0.01 85 1014.7
20260504174305 66 146 1.0 3.0 0.00 0.01 0.01 85 1014.8
20260504173304 66 145 3.0 7.0 0.00 0.01 0.01 86 1014.9
20260504172804 66 138 2.0 7.0 0.00 0.01 0.01 86 1015.0
20260504171804 66 153 2.0 3.0 0.00 0.01 0.01 85 1015.1
20260504171304 66 155 1.0 3.0 0.00 0.01 0.01 85 1015.1
20260504170804 65 155 2.0 6.0 0.00 0.01 0.01 85 1015.2
20260504170305 65 156 2.0 7.0 0.00 0.01 0.01 85 1015.1
20260504150805 66 160 1.0 3.0 0.00 0.01 0.01 85 1016.2
20260504141305 68 107 0.0 3.0 0.01 0.01 0.01 85 1017.0
20260504140804 68 107 2.0 3.0 0.01 0.01 0.01 85 1017.1
20260504140304 68 108 3.0 6.0 0.01 0.01 0.01 84 1017.1
20260504130804 68 150 3.0 8.0 0.00 0.00 0.00 83 1017.1
20260504130304 69 153 3.0 7.0 0.00 0.00 0.00 82 1017.1
20260504120304 69 119 1.0 3.0 0.00 0.00 0.00 82 1017.0
20260504110304 69 121 3.0 7.0 0.00 0.00 0.00 81 1017.1
20260504100304 70 127 5.0 10.0 0.00 0.00 0.00 80 1016.5
20260504081305 73 80 1.0 2.0 0.00 0.00 0.00 74 1014.7
20260504080804 74 80 1.0 2.0 0.00 0.00 0.00 73 1014.7
20260504080304 74 80 1.0 3.0 0.00 0.00 0.00 72 1014.6
20260504070305 76 57 2.0 6.0 0.00 0.00 0.00 70 1014.1
20260504050305 80 54 3.0 12.0 0.00 0.00 0.00 69 1013.4
20260504044804 78 31 3.0 7.0 0.00 0.00 0.00 67 1013.4
20260504044304 78 17 5.0 9.0 0.00 0.00 0.00 66 1013.5
20260504043805 78 79 5.0 9.0 0.00 0.00 0.00 65 1013.5
20260504043304 78 54 3.0 7.0 0.00 0.00 0.00 67 1013.5
20260504042804 78 93 7.0 12.0 0.00 0.00 0.00 67 1013.6
20260504042304 78 117 4.0 9.0 0.00 0.00 0.00 66 1013.7
20260504041805 77 3 0.0 0.0 0.00 0.00 0.00 71 1013.7
20260504040804 77 3 0.0 0.0 0.00 0.00 0.00 71 1013.7
20260504035804 77 3 0.0 0.0 0.00 0.00 0.00 71 1013.9
20260504034804 77 3 0.0 0.0 0.00 0.00 0.00 71 1014.0
20260504034304 77 3 0.0 0.0 0.00 0.00 0.00 71 1014.0
20260504033804 77 3 0.0 0.0 0.00 0.00 0.00 71 1014.0
20260504033304 77 3 0.0 3.0 0.00 0.00 0.00 71 1014.0
20260504032805 77 115 3.0 3.0 0.00 0.00 0.00 71 1014.1
20260504032304 77 115 3.0 8.0 0.00 0.00 0.00 71 1014.2
20260504030805 78 137 6.0 10.0 0.00 0.00 0.00 70 1014.4
20260504025805 79 103 7.0 12.0 0.00 0.00 0.00 68 1014.4
20260504025304 80 146 8.0 10.0 0.00 0.00 0.00 67 1014.4
20260504024804 80 119 5.0 14.0 0.00 0.00 0.00 66 1014.3
20260504024304 80 133 7.0 15.0 0.00 0.00 0.00 64 1014.4
20260504023804 80 92 12.0 12.0 0.00 0.00 0.00 64 1014.4
20260504023304 80 87 8.0 12.0 0.00 0.00 0.00 64 1014.5
20260504022804 79 89 9.0 14.0 0.00 0.00 0.00 65 1014.5
20260504022305 79 85 11.0 15.0 0.00 0.00 0.00 63 1014.5
20260504021804 79 100 7.0 13.0 0.00 0.00 0.00 65 1014.5
20260504021305 80 110 9.0 12.0 0.00 0.00 0.00 64 1014.5
20260504020805 81 96 7.0 8.0 0.00 0.00 0.00 65 1014.5
20260504015804 80 90 3.0 12.0 0.00 0.00 0.00 65 1014.7
20260504015304 80 105 6.0 14.0 0.00 0.00 0.00 66 1014.8
20260504014304 79 104 6.0 9.0 0.00 0.00 0.00 67 1015.0
20260504013804 79 103 4.0 7.0 0.00 0.00 0.00 67 1015.1
20260504013304 79 96 4.0 7.0 0.00 0.00 0.00 67 1015.2
20260504012804 80 57 6.0 12.0 0.00 0.00 0.00 67 1015.3
20260504012304 79 48 6.0 10.0 0.00 0.00 0.00 67 1015.5
20260504011804 79 71 6.0 10.0 0.00 0.00 0.00 67 1015.5
20260504011304 79 75 6.0 13.0 0.00 0.00 0.00 67 1015.5
20260504010304 79 65 6.0 10.0 0.00 0.00 0.00 69 1015.6
20260504005804 78 83 3.0 10.0 0.00 0.00 0.00 69 1015.8
20260504005305 78 49 8.0 13.0 0.00 0.00 0.00 71 1015.8
20260504004804 78 50 4.0 9.0 0.00 0.00 0.00 71 1015.8
20260504004305 77 54 7.0 13.0 0.00 0.00 0.00 71 1015.8
20260504003304 77 83 6.0 9.0 0.00 0.00 0.00 69 1016.0
20260504002804 77 75 5.0 10.0 0.00 0.00 0.00 69 1016.0
20260504002305 77 61 3.0 8.0 0.00 0.00 0.00 70 1016.0
20260504001804 77 61 4.0 8.0 0.00 0.00 0.00 71 1016.0
20260504001306 76 36 5.0 9.0 0.00 0.00 0.00 72 1016.1
20260504000804 76 71 5.0 9.0 0.00 0.00 0.00 72 1016.1
20260504000304 76 81 6.0 9.0 0.00 0.00 0.00 70 1016.2
20260503235804 76 55 4.0 8.0 0.00 0.00 0.00 72 1016.2
20260503235304 76 116 3.0 9.0 0.00 0.00 0.00 73 1016.1
20260503234804 76 71 2.0 8.0 0.00 0.00 0.00 73 1016.2
20260503234305 75 60 3.0 6.0 0.00 0.00 0.00 75 1016.1
20260503233804 75 78 3.0 7.0 0.00 0.00 0.00 75 1016.1
20260503233305 74 97 4.0 8.0 0.00 0.00 0.00 76 1016.2
20260503232804 74 90 3.0 3.0 0.00 0.00 0.00 77 1016.2
20260503232305 73 84 2.0 7.0 0.00 0.00 0.00 76 1016.2
20260503231804 73 92 4.0 7.0 0.00 0.00 0.00 77 1016.2
20260503231304 72 3 0.0 0.0 0.00 0.00 0.00 79 1016.1
20260503230817 72 3 0.0 0.0 0.00 0.00 0.00 79 1016.1
20260503230304 72 3 0.0 0.0 0.00 0.00 0.00 79 1016.0
20260503225804 72 53 3.0 3.0 0.00 0.00 0.00 79 1016.0
20260503225305 72 76 3.0 3.0 0.00 0.00 0.00 79 1016.0
20260503223804 71 85 5.0 8.0 0.00 0.00 0.00 79 1015.9
20260503223306 71 99 4.0 8.0 0.00 0.00 0.00 80 1015.8
20260503222304 71 92 5.0 8.0 0.00 0.00 0.00 79 1015.9
20260503221304 70 90 4.0 9.0 0.00 0.00 0.00 80 1015.7
20260503220305 70 90 2.0 3.0 0.00 0.00 0.00 80 1015.8
20260503215304 69 88 2.0 2.0 0.00 0.00 0.00 82 1015.9